• In Hungary
  • List of Countries
  • For 7 days
  • Water Temperature
  • Satellite Maps
  • Weather Map
  • News
  • Weather Widgets
  • user-avatar
    Login

    Hourly Weather Nazino

    Today, 25 May, Friday

    Time Temperature Precipitation Wind Pressure Humidity
    00:00 +6°C° 0.7 mm 4 mps 748 mmHg 85%
    01:00 +4°C° 0.7 mm 4 mps 748 mmHg 86%
    02:00 +2°C° 0.7 mm 5 mps 748 mmHg 87%
    03:00 +1°C° 0.1 mm 5 mps 748 mmHg 85%
    04:00 +1°C° 0.1 mm 5 mps 749 mmHg 82%
    05:00 0°C° 0.1 mm 5 mps 749 mmHg 80%
    06:00 +1°C° 0 mm 5 mps 750 mmHg 73%
    07:00 +2°C° 0 mm 5 mps 750 mmHg 66%
    08:00 +3°C° 0 mm 5 mps 751 mmHg 60%
    09:00 +5°C° 0 mm 5 mps 751 mmHg 52%
    10:00 +6°C° 0 mm 5 mps 751 mmHg 45%
    11:00 +7°C° 0 mm 5 mps 752 mmHg 38%
    12:00 +8°C° 0 mm 5 mps 752 mmHg 36%
    13:00 +8°C° 0 mm 5 mps 752 mmHg 33%
    14:00 +9°C° 0 mm 5 mps 752 mmHg 31%
    15:00 +9°C° 0 mm 5 mps 753 mmHg 31%
    16:00 +8°C° 0 mm 5 mps 753 mmHg 32%
    17:00 +8°C° 0 mm 4 mps 754 mmHg 32%
    18:00 +7°C° 0 mm 4 mps 754 mmHg 36%
    19:00 +7°C° 0 mm 3 mps 754 mmHg 40%
    20:00 +4°C° 0 mm 3 mps 755 mmHg 44%
    21:00 +3°C° 0 mm 3 mps 755 mmHg 49%
    22:00 +2°C° 0 mm 2 mps 756 mmHg 54%
    23:00 +1°C° 0 mm 2 mps 756 mmHg 60%

    Tomorrow, 26 May, Saturday

    Time Temperature Precipitation Wind Pressure Humidity
    00:00 -1°C° 0 mm 2 mps 756 mmHg 64%
    01:00 -2°C° 0 mm 2 mps 756 mmHg 68%
    02:00 -1°C° 0 mm 1 mps 757 mmHg 73%
    03:00 0°C° 0 mm 1 mps 757 mmHg 67%
    04:00 0°C° 0 mm 1 mps 757 mmHg 62%
    05:00 +1°C° 0 mm 1 mps 757 mmHg 57%
    06:00 +1°C° 0 mm 2 mps 757 mmHg 50%
    07:00 +3°C° 0 mm 2 mps 758 mmHg 44%
    08:00 +3°C° 0 mm 3 mps 758 mmHg 38%
    09:00 +4°C° 0 mm 3 mps 757 mmHg 35%
    10:00 +5°C° 0 mm 3 mps 757 mmHg 32%
    11:00 +7°C° 0 mm 3 mps 757 mmHg 30%
    12:00 +8°C° 0 mm 3 mps 757 mmHg 29%
    13:00 +8°C° 0 mm 3 mps 756 mmHg 29%
    14:00 +9°C° 0 mm 3 mps 756 mmHg 28%
    15:00 +9°C° 0 mm 3 mps 756 mmHg 29%
    16:00 +9°C° 0 mm 3 mps 756 mmHg 30%
    17:00 +8°C° 0 mm 3 mps 756 mmHg 30%
    18:00 +7°C° 0 mm 3 mps 756 mmHg 35%
    19:00 +6°C° 0 mm 2 mps 756 mmHg 39%
    20:00 +5°C° 0 mm 2 mps 756 mmHg 43%
    21:00 +3°C° 0 mm 2 mps 756 mmHg 46%
    22:00 +1°C° 0 mm 3 mps 756 mmHg 50%
    23:00 0°C° 0 mm 3 mps 756 mmHg 53%

    Day after tomorrow, 27 May, Sunday

    Time Temperature Precipitation Wind Pressure Humidity
    00:00 -1°C° 0 mm 3 mps 755 mmHg 58%
    01:00 -2°C° 0 mm 2 mps 755 mmHg 62%
    02:00 -3°C° 0 mm 2 mps 755 mmHg 67%
    03:00 -3°C° 0 mm 2 mps 755 mmHg 64%
    04:00 -2°C° 0 mm 2 mps 755 mmHg 61%
    05:00 -1°C° 0 mm 2 mps 755 mmHg 58%
    06:00 +1°C° 0 mm 2 mps 755 mmHg 51%
    07:00 +2°C° 0 mm 2 mps 755 mmHg 45%
    08:00 +3°C° 0 mm 3 mps 754 mmHg 38%
    09:00 +4°C° 0 mm 3 mps 754 mmHg 35%
    10:00 +5°C° 0 mm 3 mps 753 mmHg 31%
    11:00 +7°C° 0 mm 3 mps 753 mmHg 28%
    12:00 +8°C° 0 mm 2 mps 752 mmHg 26%
    13:00 +9°C° 0 mm 2 mps 752 mmHg 25%
    14:00 +10°C° 0 mm 2 mps 752 mmHg 23%
    15:00 +10°C° 0 mm 2 mps 751 mmHg 23%
    16:00 +11°C° 0 mm 1 mps 751 mmHg 23%
    17:00 +11°C° 0 mm 1 mps 751 mmHg 23%
    18:00 +10°C° 0 mm 1 mps 751 mmHg 27%
    19:00 +9°C° 0 mm 1 mps 751 mmHg 31%
    20:00 +7°C° 0 mm 1 mps 750 mmHg 35%
    21:00 +5°C° 0 mm 2 mps 750 mmHg 37%
    22:00 +4°C° 0 mm 2 mps 750 mmHg 39%
    23:00 +2°C° 0 mm 3 mps 749 mmHg 41%

    28 May, Monday

    Time Temperature Precipitation Wind Pressure Humidity
    00:00 +2°C° 0 mm 3 mps 749 mmHg 42%
    01:00 +1°C° 0 mm 4 mps 748 mmHg 43%
    02:00 +1°C° 0 mm 4 mps 747 mmHg 44%
    03:00 +3°C° 0 mm 4 mps 747 mmHg 44%
    04:00 +3°C° 0 mm 5 mps 746 mmHg 44%
    05:00 +5°C° 0 mm 5 mps 745 mmHg 44%
    06:00 +5°C° 0.2 mm 6 mps 745 mmHg 46%
    07:00 +6°C° 0.2 mm 7 mps 744 mmHg 48%
    08:00 +9°C° 0.2 mm 7 mps 743 mmHg 51%
    09:00 +8°C° 1.3 mm 7 mps 743 mmHg 60%
    10:00 +6°C° 1.3 mm 7 mps 742 mmHg 70%
    11:00 +5°C° 1.3 mm 7 mps 742 mmHg 80%
    12:00 +5°C° 0.9 mm 6 mps 743 mmHg 80%
    13:00 +5°C° 0.9 mm 6 mps 743 mmHg 80%
    14:00 +7°C° 0.9 mm 6 mps 743 mmHg 80%
    15:00 +8°C° 0 mm 5 mps 744 mmHg 68%
    16:00 +9°C° 0 mm 5 mps 745 mmHg 57%
    17:00 +10°C° 0 mm 5 mps 746 mmHg 45%
    18:00 +10°C° 0 mm 4 mps 746 mmHg 48%
    19:00 +9°C° 0 mm 3 mps 747 mmHg 52%
    20:00 +8°C° 0 mm 2 mps 747 mmHg 56%
    21:00 +7°C° 0 mm 2 mps 747 mmHg 61%
    22:00 +6°C° 0 mm 2 mps 747 mmHg 66%
    23:00 +5°C° 0 mm 2 mps 747 mmHg 71%

    29 May, Tuesday

    Time Temperature Precipitation Wind Pressure Humidity
    00:00 +4°C° 0 mm 2 mps 747 mmHg 74%
    01:00 +5°C° 0 mm 1 mps 747 mmHg 77%
    02:00 +5°C° 0 mm 1 mps 746 mmHg 80%
    03:00 +5°C° 0 mm 1 mps 746 mmHg 79%
    04:00 +6°C° 0 mm 1 mps 746 mmHg 78%
    05:00 +6°C° 0 mm 1 mps 746 mmHg 77%
    06:00 +7°C° 0.1 mm 2 mps 746 mmHg 75%
    07:00 +8°C° 0.1 mm 2 mps 745 mmHg 72%
    08:00 +9°C° 0.1 mm 2 mps 745 mmHg 70%
    09:00 +10°C° 0.3 mm 2 mps 745 mmHg 66%
    10:00 +11°C° 0.3 mm 3 mps 745 mmHg 63%
    11:00 +11°C° 0.3 mm 3 mps 745 mmHg 59%
    12:00 +11°C° 0.5 mm 3 mps 745 mmHg 60%
    13:00 +11°C° 0.5 mm 3 mps 745 mmHg 60%
    14:00 +11°C° 0.5 mm 3 mps 745 mmHg 61%
    15:00 +10°C° 0.7 mm 3 mps 745 mmHg 65%
    16:00 +10°C° 0.7 mm 2 mps 746 mmHg 68%
    17:00 +9°C° 0.7 mm 2 mps 746 mmHg 72%
    18:00 +8°C° 0.4 mm 2 mps 746 mmHg 75%
    19:00 +8°C° 0.4 mm 1 mps 746 mmHg 79%
    20:00 +8°C° 0.4 mm 1 mps 746 mmHg 82%
    21:00 +7°C° 0.1 mm 1 mps 747 mmHg 83%
    22:00 +5°C° 0.1 mm 2 mps 747 mmHg 84%
    23:00 +4°C° 0.1 mm 2 mps 747 mmHg 85%

    30 May, Wednesday

    Time Temperature Precipitation Wind Pressure Humidity
    00:00 +3°C° 0 mm 2 mps 747 mmHg 85%
    01:00 +2°C° 0 mm 2 mps 748 mmHg 85%
    02:00 +1°C° 0 mm 2 mps 748 mmHg 84%
    03:00 +3°C° 0 mm 1 mps 748 mmHg 81%
    04:00 +3°C° 0 mm 1 mps 748 mmHg 78%
    05:00 +4°C° 0 mm 1 mps 749 mmHg 75%
    06:00 +5°C° 0 mm 1 mps 749 mmHg 66%
    07:00 +7°C° 0 mm 1 mps 749 mmHg 57%
    08:00 +9°C° 0 mm 1 mps 748 mmHg 49%
    09:00 +10°C° 0 mm 1 mps 748 mmHg 43%
    10:00 +12°C° 0 mm 1 mps 748 mmHg 37%
    11:00 +13°C° 0 mm 1 mps 748 mmHg 31%
    12:00 +14°C° 0 mm 1 mps 748 mmHg 30%
    13:00 +14°C° 0 mm 2 mps 747 mmHg 29%
    14:00 +14°C° 0 mm 2 mps 747 mmHg 28%
    15:00 +14°C° 0 mm 2 mps 747 mmHg 29%
    16:00 +13°C° 0 mm 3 mps 747 mmHg 29%
    17:00 +13°C° 0 mm 3 mps 747 mmHg 30%
    18:00 +12°C° 0 mm 3 mps 746 mmHg 36%
    19:00 +10°C° 0 mm 3 mps 746 mmHg 41%
    20:00 +9°C° 0 mm 3 mps 746 mmHg 47%
    21:00 +7°C° 0 mm 4 mps 746 mmHg 50%
    22:00 +6°C° 0 mm 4 mps 746 mmHg 54%
    23:00 +5°C° 0 mm 5 mps 745 mmHg 57%
    Show more